TimeEST,TemperatureF,Dew PointF,Humidity,Sea Level PressureIn,VisibilityMPH,Wind Direction,Wind SpeedMPH,Gust SpeedMPH,PrecipitationIn,Events,Conditions,WindDirDegrees,DateUTC
12:53 AM,39.9,30.9,70,30.05,10.0,SSW,4.6,-,N/A,,Clear,210,2013-02-15 05:53:00
1:53 AM,41.0,30.9,67,30.05,10.0,Calm,Calm,-,N/A,,Partly Cloudy,0,2013-02-15 06:53:00
2:53 AM,41.0,30.9,67,30.04,10.0,Calm,Calm,-,N/A,,Mostly Cloudy,0,2013-02-15 07:53:00
3:53 AM,39.0,30.9,73,30.04,10.0,Calm,Calm,-,N/A,,Clear,0,2013-02-15 08:53:00
4:53 AM,37.9,30.9,76,30.04,10.0,Calm,Calm,-,N/A,,Clear,0,2013-02-15 09:53:00
5:53 AM,37.0,30.0,76,30.04,10.0,WSW,3.5,-,N/A,,Clear,250,2013-02-15 10:53:00
6:53 AM,36.0,30.9,82,30.07,10.0,West,3.5,-,N/A,,Clear,260,2013-02-15 11:53:00
7:53 AM,37.0,30.9,79,30.09,10.0,West,8.1,-,N/A,,Partly Cloudy,270,2013-02-15 12:53:00
8:53 AM,41.0,34.0,76,30.09,10.0,Calm,Calm,-,N/A,,Partly Cloudy,0,2013-02-15 13:53:00
9:53 AM,48.9,36.0,61,30.07,10.0,SW,10.4,-,N/A,,Partly Cloudy,220,2013-02-15 14:53:00
10:53 AM,52.0,36.0,54,30.06,10.0,SW,15.0,-,N/A,,Scattered Clouds,230,2013-02-15 15:53:00
11:53 AM,53.1,36.0,52,30.05,10.0,WSW,16.1,-,N/A,,Scattered Clouds,250,2013-02-15 16:53:00
12:53 PM,55.0,36.0,49,30.03,10.0,WSW,16.1,23.0,N/A,,Scattered Clouds,240,2013-02-15 17:53:00
1:53 PM,53.1,36.0,52,30.01,10.0,WNW,16.1,-,N/A,,Mostly Cloudy,290,2013-02-15 18:53:00
2:53 PM,52.0,39.0,61,30.01,10.0,NW,13.8,18.4,0.01,,Mostly Cloudy,310,2013-02-15 19:53:00
3:53 PM,48.9,36.0,61,30.03,10.0,WNW,10.4,18.4,0.00,,Overcast,290,2013-02-15 20:53:00
4:53 PM,46.0,36.0,68,30.05,10.0,West,6.9,-,0.00,Rain,Light Rain,280,2013-02-15 21:53:00
5:21 PM,44.6,37.4,76,30.06,10.0,North,8.1,-,0.00,Rain,Light Rain,10,2013-02-15 22:21:00
5:53 PM,43.0,37.9,82,30.08,7.0,NE,5.8,-,0.02,Rain,Light Rain,40,2013-02-15 22:53:00
6:11 PM,42.8,37.4,81,30.07,10.0,East,3.5,-,0.00,,Overcast,90,2013-02-15 23:11:00
6:53 PM,42.1,37.9,85,30.09,10.0,Calm,Calm,-,0.00,Rain,Light Rain,0,2013-02-15 23:53:00
7:22 PM,42.8,37.4,81,30.10,9.0,Calm,Calm,-,0.01,Rain,Light Rain,0,2013-02-16 00:22:00
7:53 PM,41.0,37.0,86,30.11,6.0,North,8.1,-,0.02,Rain,Rain,360,2013-02-16 00:53:00
8:50 PM,39.2,33.8,81,30.10,10.0,Calm,Calm,-,0.03,,Overcast,0,2013-02-16 01:50:00
8:53 PM,39.0,34.0,82,30.11,10.0,ENE,3.5,-,0.03,,Overcast,70,2013-02-16 01:53:00
9:53 PM,37.9,35.1,89,30.11,10.0,ENE,4.6,-,N/A,,Overcast,60,2013-02-16 02:53:00
10:53 PM,37.0,33.1,86,30.10,10.0,NE,3.5,-,N/A,,Mostly Cloudy,40,2013-02-16 03:53:00
11:53 PM,36.0,32.0,86,30.08,10.0,NNE,4.6,-,N/A,,Scattered Clouds,20,2013-02-16 04:53:00